This is the latest recevied weather packets stored in our database for station/object N4HAC. If no packets are shown the sender has not sent any weather packets the latest 10 day(s).
| Time | Temp. | Humidity | Pressure | Rain* | Wind** | Luminosity | Snow |
|---|---|---|---|---|---|---|---|
| 1777346778 | 11.11° C | 78% | 1017.8 hPa | 0 mm | - | 0 W/m² | - |
| 1777346474 | 11.11° C | 78% | 1017.6 hPa | 0 mm | - | 0 W/m² | - |
| 1777346171 | 10.56° C | 79% | 1017.3 hPa | 0 mm | - | 0 W/m² | - |
| 1777345869 | 11.11° C | 80% | 1017.5 hPa | 0 mm | - | 0 W/m² | - |
| 1777345567 | 11.11° C | 79% | 1017.4 hPa | 0 mm | - | 0 W/m² | - |
| 1777345263 | 11.11° C | 78% | 1017.5 hPa | 0 mm | - | 0 W/m² | - |
| 1777344959 | 10.56° C | 80% | 1017.4 hPa | 0 mm | - | 0 W/m² | - |
| 1777344655 | 11.11° C | 81% | 1017.4 hPa | 0 mm | - | 0 W/m² | - |
| 1777344352 | 11.11° C | 79% | 1017.6 hPa | 0 mm | - | 0 W/m² | - |
| 1777344049 | 11.67° C | 78% | 1017.5 hPa | 0 mm | - | 0 W/m² | - |
| 1777343747 | 11.67° C | 75% | 1017.5 hPa | 0 mm | - | 0 W/m² | - |
| 1777343444 | 12.22° C | 74% | 1017.5 hPa | 0 mm | - | 0 W/m² | - |
| 1777343142 | 12.22° C | 73% | 1017.8 hPa | 0 mm | - | 0 W/m² | - |
| 1777342839 | 12.22° C | 73% | 1017.6 hPa | 0 mm | - | 0 W/m² | - |
| 1777342536 | 12.22° C | 73% | 1017.8 hPa | 0 mm | - | 0 W/m² | - |
| 1777342232 | 12.22° C | 72% | 1017.7 hPa | 0 mm | - | 0 W/m² | - |
| 1777341929 | 12.22° C | 71% | 1018 hPa | 0 mm | - | 0 W/m² | - |
| 1777341625 | 12.78° C | 70% | 1018 hPa | 0 mm | - | 0 W/m² | - |
| 1777341321 | 12.78° C | 70% | 1017.7 hPa | 0 mm | - | 0 W/m² | - |
| 1777341018 | 12.78° C | 71% | 1018 hPa | 0 mm | - | 0 W/m² | - |
| 1777340716 | 12.22° C | 72% | 1017.9 hPa | 0 mm | - | 0 W/m² | - |
| 1777340414 | 12.22° C | 73% | 1018 hPa | 0 mm | - | 0 W/m² | - |
| 1777340111 | 12.78° C | 69% | 1017.8 hPa | 0 mm | - | 0 W/m² | - |
| 1777339808 | 13.33° C | 68% | 1017.9 hPa | 0 mm | - | 0 W/m² | - |
| 1777339506 | 13.33° C | 67% | 1017.9 hPa | 0 mm | - | 0 W/m² | - |
* Rain latest hour (hover to see other rain measurements)
** Current wind speed in m/s (hover to see current wind gust speed)